Regional Weather Roundup
Issued by NWS

Home | Current Version | Previous Version | Graphics & Text | Print | Product List | Glossary On
Versions: 1 2 3 4 5 6 7 8 9 10 11 12 13 14 15 16 17 18 19 20 21 22 23 24 25 26 27 28 29 30 31 32 33 34 35 36 37 38 39 40 41 42 43 44 45 46 47 48 49 50
127
ASUS45 KCYS 210510
RWRWY

WYOMING REGIONAL WEATHER ROUNDUP
NATIONAL WEATHER SERVICE CHEYENNE WY
1100 PM MDT FRI APR 20 2018

NOTE:  "FAIR" INDICATES FEW OR NO CLOUDS BELOW 12,000 FEET
WITH NO SIGNIFICANT WEATHER AND/OR OBSTRUCTIONS TO VISIBILITY.

WYZ001-210600-
YELLOWSTONE NATIONAL PARK

CITY           SKY/WX    TMP DP  RH WIND       PRES   REMARKS
LK YELLOWSTONE   N/A     31  23  72 N3        30.20S
W YELLOWSTONE  NOT AVBL

$$
WYZ002>013-054>058-071-098>099-210600-
NORTHERN WYOMING

CITY           SKY/WX    TMP DP  RH WIND       PRES   REMARKS
JACKSON        FAIR      39  24  55 N13       30.12R WCI  31
CODY           FAIR      47  32  56 W6        30.14R
GREYBULL       FAIR      50  37  61 W10       30.05R
WORLAND        FAIR      42  33  70 S5        30.07R
SHERIDAN       FAIR      40  33  76 S6        30.11S
BUFFALO        FAIR      39  34  82 S10       30.14F WCI  32
GILLETTE       CLOUDY    39  34  82 S14       30.16R WCI  31
HULETT         CLOUDY    41  32  70 S16       30.17S
NEWCASTLE      LGT RAIN  36  32  87 SE9G16    30.21S WCI  29

$$
WYZ014>020-022>026-101>103-210600-
CENTRAL WYOMING

CITY           SKY/WX    TMP DP  RH WIND       PRES   REMARKS
BIG PINEY      FAIR      38  25  59 CALM      30.13R
PINEDALE       FAIR      32  27  80 NW6       30.13R WCI  26
DUBOIS         FAIR      37  27  65 SE6       30.15R WCI  33
LANDER         CLOUDY    42  32  67 N6        30.12R
RIVERTON       CLOUDY    41  33  73 SE6       30.14R
CASPER         LGT RAIN  35  35 100 NE7       30.14R WCI  29
DOUGLAS        CLOUDY    36  36 100 SE9       30.14S WCI  29

$$
WYZ021-027>030-104>119-210600-
SOUTHERN WYOMING

CITY           SKY/WX    TMP DP  RH WIND       PRES   REMARKS
EVANSTON       FAIR      42  25  50 N10       30.12R
KEMMERER       FAIR      37  32  81 CALM      30.13S
FORT BRIDGER   MOCLDY    40  37  91 S8        30.14R WCI  34
ROCK SPRINGS   CLOUDY    37  31  78 CALM      30.12R
DIXON          CLOUDY    38  31  75 N7        30.06R WCI  33
RAWLINS          N/A    N/A N/A N/A MISG      30.09R
SARATOGA       CLOUDY    32  32 100 NW5       30.06R WCI  27
LARAMIE        CLOUDY    30  29  96 SE3       30.06S
CHEYENNE       LGT SNOW  32  32 100 SE12      30.11R FOG     WCI  23
TORRINGTON     LGT RAIN  36  36 100 E10       30.17R FOG     WCI  28
PINE BLUFFS    CLOUDY    34  34 100 MISG      30.15R

$$




USA.gov is the U.S. government's official web portal to all federal, state and local government web resources and services.